Regional Weather Roundup
Issued by NWS Charleston, SC

Home | Current Version | Previous Version | Text Only | Print | Product List | Glossary On
Versions: 1 2 3 4 5 6 7 8 9 10 11 12 13 14 15 16 17 18 19 20 21 22 23 24 25 26 27 28 29 30 31 32 33 34 35 36 37 38 39 40 41 42 43 44 45 46 47 48 49 50
000
ASUS42 KCHS 210212
RWRCHS

Regional Weather Roundup
National Weather Service Charleston SC
1000 PM EDT FRI APR 20 2018

NOTE: "fair" indicates few or no clouds below 12,000 feet with no
significant weather and/or obstructions to visibility.

Not all stations are quality controlled. Use data with caution,
especially dewpoint observations.

SCZ027-030-031-034>040-042>050-210300-
...Southeast South Carolina...

CITY           SKY/WX    TMP DP  RH WIND       PRES   REMARKS
N Charleston   FAIR      56  41  57 E6        30.32R
Waterfront Prk NOT AVBL
Mount Pleasant FAIR      48  45  87 CALM      30.33R
Johns Island   FAIR      52  45  76 CALM      30.33R
Pinopolis        N/A     55  45  67 VRB2      30.22R
Moncks Corner  FAIR      48  41  76 CALM      30.32R
Summerville    FAIR      50  43  76 CALM      30.33R
Beaufort MCAS  FAIR      58  49  72 E5        30.31R
Beaufort Arpt  FAIR      54  46  76 E5        30.31R
Hilton Head Is FAIR      59  46  63 VRB7      30.32R
Walterboro     FAIR      50  41  71 CALM      30.32R
Allendale      FAIR      52  39  62 CALM      30.30R

...Southern Midlands and Pee Dee...

CITY           SKY/WX    TMP DP  RH WIND       PRES   REMARKS
Georgetown     FAIR      45  45 100 CALM      30.34R
Kingstree      FAIR      50  41  71 CALM      30.32R
Orangeburg     FAIR      50  40  68 CALM      30.31R
Barnwell       FAIR      52  37  58 CALM      30.31R
Aiken          FAIR      50  34  53 CALM      30.34R
Manning        FAIR      43  36  75 CALM      30.32R
Columbia       FAIR      53  41  63 SW3       30.31R
Sumter         FAIR      51  37  59 CALM      30.29R
Florence       FAIR      52  40  63 CALM      30.32R
Myrtle Beach   FAIR      54  42  64 SE5       30.35R
N Myrtle Beach FAIR      56  41  57 SE5       30.33R

$$

GAZ063-065-086>088-099>101-113>116-118-119-134>141-150-210300-
...Southeast Georgia...

CITY           SKY/WX    TMP DP  RH WIND       PRES   REMARKS
Savannah Arpt  FAIR      58  47  66 E8        30.31R
Hunter AAF     FAIR      56  47  72 NE5       30.28R
Fort Stewart   FAIR      56  48  75 E3        30.28R
Statesboro     FAIR      51  43  74 CALM      30.30R
Sylvania       FAIR      54  41  62 E3        30.31R
Claxton        FAIR      54  50  87 CALM      30.29R

...CSRA, Central and far Southeast Georgia...

CITY           SKY/WX    TMP DP  RH WIND       PRES   REMARKS
Thomson        FAIR      48  42  79 CALM      30.35R
Augusta-Bush   FAIR      49  41  74 CALM      30.30R
Augusta-Daniel FAIR      62  30  29 NE8       30.31R
Swainsboro     FAIR      54  46  76 CALM      30.30R
Vidalia        FAIR      59  46  63 NE3       30.29R
Eastman        FAIR      54  41  62 CALM      30.31R
Hazlehurst     FAIR      61  44  52 CALM      30.27R
Alma           MOCLDY    58  48  69 CALM      30.27R
Waycross       CLOUDY    61  51  68 E6        30.28R
Jesup          NOT AVBL
Baxley         FAIR      55  46  71 CALM      30.28R
Brunswick      CLOUDY    59  48  67 N6        30.29R
Saint Simons   CLOUDY    62  51  67 NE9       30.27R

$$

SCZ027-028-034-036>038-045-046-048>050-GAZ119-141-210300-
...Lake and Supplemental Coastal Observations...

STATION/POSITION TIME  TEMP    WIND        PRES    WAVE   SWELL
                       AIR SEA DIR/SP/G            HT/PER HT/PER/DIR
                 (UTC) (F)     (DEG/KT/KT) (MB)    (FT/S) (FT/S/D)
Winyah Bay       0045   56      90/  2     1026.0
Lake Murray      0120   57      CALM  /  2 1025.4
ACE Basin NERRS  0045   56        CALM       N/A
Fort Pulaski     0142   61 66   90/ 13/ 15 1026.3R
Sapelo Island    0100   59      50/  5     1025.0

$$

ANZ835-935-AMZ111-154-330-350-352-354-370-450-454-472-210300-
...C-MAN and Buoy Observations...

STATION/POSITION TIME  TEMP    WIND        PRES    WAVE   SWELL
                       AIR SEA DIR/SP/G            HT/PER HT/PER/DIR
                 (UTC) (F)     (DEG/KT/KT) (MB)    (FT/S) (FT/S/D)
Buoy 41004       0150   62 67   70/ 14/ 17 1026.3R   5/ 8   3/ 90/ 8
Buoy 41008       0150   63 65   70/ 19/ 21 1024.6R   6/ 6   2/100/ 9
Folly Beach CMAN 0100   60      90/ 10/ 11 1026.7R
Capers Nearshore 0108   61 63   90/ 10/ 12 1026.4R
Fripp Nearshore  0108   61 64   80/ 12/ 16 1025.4R


STATION/POSITION TIME  TEMP    WIND        PRES    WAVE   SWELL
                       AIR SEA DIR/SP/G            HT/PER HT/PER/DIR
                 (UTC) (F)     (DEG/KT/KT) (MB)    (FT/S) (FT/S/D)
5E St. Marys GA  0130      66                N/A     7/ 6
Frying Pan Buoy  0150   60 66   90/ 10/ 16 1026.9    3/ 9   3/ 80/ 9
Buoy 41025       0150   54 70   40/ 12/ 14 1027.9R   3/ 8   2/ 50/ 8
Cape Lookout NC  0100           60/  9/ 11 1027.2R
Buoy 41002       0150   63 72   40/ 16/ 19 1025.1R   7/ 8   3/ 10/ 9
Buoy 41010       0150   73 74   70/ 19/ 23 1021.4R   7/ 9   5/ 20/ 9
St Augustine FL  0200   65 67  360/ 24/ 26 1023.2R


$$



USA.gov is the U.S. government's official web portal to all federal, state and local government web resources and services.